Showing default

IRIDIUM 159, 43578

Orbit data source: Space-Track

IRIDIUM 159, 43578 is a payload satellite owned by Iridium (US) in LEO that was launched on Wed, 25 Jul 2018 UTC via an FALCON 9 launch vehicle from the Air Force Western Test Range (AFWTR). Payloads include a variety of satellites, spacecraft, and rockets equipped with specific instruments for various scientific and technological missions. These include communications satellites like Starlink; space stations such as the ISS; scientific satellites like the Hubble; Earth observation satellites from companies like Planet Labs, Umbra, and HawkEye 360; GPS; miniature CubeSats for education and research; and military/defense satellites.

Loading next visibility...
IRIDIUM 159 details
Identifier
43578, 2018-061K
Orbit
LEO
Last TLE update9 hours ago
Origin
Flag of USIridium (US)
ManufacturerNGIS SSG Gilbert
MissionOperational Commercial Communications
Bus & MotorELITEBUS, Unknown motor
Mass860 kg wet, 700 kg dry
Launch date (UTC)
2018-07-25 (6 years ago)
Launch vehicle
FALCON 9
Launch site
Air Force Western Test Range (AFWTR)
Object type
Payload
Rocket body
Debris
Shape & HBRTrap Box + 2 Pan, 9.4 m
Radar Cross Section14.423 m², Large (>1 m²)

Expand to show TLE details & history

TLE from 9 hours ago
0 IRIDIUM 159
1 43578U 18061K   24361.50025759  .00000257  00000-0  84600-4 0  9998
2 43578  86.3965 281.3810 0002262  84.4785 275.6668 14.34217604336315
Epoch: 2024-12-26T12:00Z
Definitive object data (Epoch: 2024-12-26T12:00:22.255Z)
Latitude-0.00012°
Longitude5.8095°
Altitude780.559 km
Speed7.464 km/s
True Right ascension18h 45m 31s
True Declination0° 00' 00"
Sunlit
Object was in daylight at TLE epoch
Visualization TLE readout
Latitude-35.03115°
Longitude-171.83687°
Altitude792.078 km
Speed7.456 km/s
Apparent Right ascension07h 45m 08s
Apparent Declination-37° 57' 50"
Sunlit
Object is in full shadow
Visualization observer readout
Local Sidereal Time20:45:35
Azimuth85.392° E
Elevation-78.099°
Doppler factor1
Orbital elements
Apogee altitude776.25 km
Perigee altitude773.014 km
Semi-major axis7,152.769 km
Eccentricity0.0002262
Inclination86.3965°
RAAN281.381°
Arg. of periapsis84.4785°
True anomaly275.64101°
Mean anomaly275.6668°
Eccentric anomaly275.6539°
Mean motion3.58783 °/min
BSTAR0.0000846
Orbital period100.34 mins
Loading maneuver chart data...
Loading historical data...
Loading historical data...
Loading historical data...
Loading historical data...
Loading historical data...
Loading historical data...
Loading historical data...

IRIDIUM 159 Visibility forecast

Observer location: undefined°, undefined

Span
Click to sort rows by Start time (UTC) header in descending order
Start Az.
Max El. time (UTC)
Max El. Az.
Max El.
End time (UTC)
End Az.
10 mins2024-12-27 06:59:36.972Z358.851° N2024-12-27 07:04:36.972Z118.641° SE44.831°2024-12-27 07:09:36.972Z176.833° S
6 mins2024-12-27 18:17:36.972Z115.302° SE2024-12-27 18:20:36.972Z73.284° E18.51°2024-12-27 18:23:36.972Z36.92° NE
8 mins2024-12-27 19:56:36.972Z209.476° SW2024-12-27 20:00:36.972Z280.94° WNW34.884°2024-12-27 20:04:36.972Z345.524° N
|